This demonstration page uses our WeatherBlox Daily Observations layout. Learn more.

Left ArrowRight Arrow

Hourly Observations for January 18, 2020

Temp ( °F °C ) Dew Point ( °F °C ) Humidity (%) Winds ( mph kmh ) Pressure ( in mb ) Visibility ( mi km ) Precip ( " mm )
12:53 am 00:53 Cloudy 34 1.1 20 -6.7 56 56 ESE 7 11 30.32 1027 10 16 0.00 0.00
1:53 am 01:53 Cloudy with Light Rain 33 0.6 23 -5 66 66 ESE 5 7 30.29 1026 10 16 0.00 0.00
2:53 am 02:53 Cloudy with Light Wintry Mix 32 0 26 -3.3 79 79 ESE 6 9 30.25 1024 5 8 0.06 1.52
3:00 am 03:00 Cloudy with Light Freezing Rain 32 0 26 -3.3 79 79 ESE 6 9 30.25 1025 6 10 0.01 0.25
3:53 am 03:53 Cloudy with Light Freezing Rain 32 0 27 -2.8 82 82 ESE 8 13 30.19 1023 8 13 0.05 1.27
4:16 am 04:16 Cloudy with Freezing Rain 32 0 28 -2.2 85 85 SE 6 9 30.19 1022 4 6 0.05 1.27
4:41 am 04:41 Cloudy with Light Wintry Mix 32 0 28 -2.2 85 85 VRB 6 9 30.18 1022 5 8 0.09 2.29
4:53 am 04:53 Cloudy with Light Wintry Mix 32 0 29 -1.7 88 88 SE 6 9 30.16 1021 6 10 0.11 2.79
5:53 am 05:53 Cloudy with Light Rain 33 0.6 30 -1.1 89 89 ESE 3 6 30.09 1019 8 13 0.05 1.27
6:53 am 06:53 Cloudy with Light Rain 33 0.6 31 -0.6 92 92 Calm 30.04 1017 10 16 0.01 0.25
7:53 am 07:53 Cloudy with Light Rain 35 1.7 31 -0.6 85 85 VRB 7 11 29.98 1015 8 13 0.04 1.02
8:45 am 08:45 Cloudy with Rain 36 2.2 33 0.6 89 89 VRB 3 6 29.97 1015 3 4 0.12 3.05
8:53 am 08:53 Cloudy with Rain 36 2.2 33 0.6 89 89 ESE 3 6 29.94 1014 3 4 0.14 3.56
9:10 am 09:10 Cloudy with Light Rain 37 2.8 34 1.1 89 89 Calm 29.96 1014 4 6 0.03 0.76
9:21 am 09:21 Cloudy with Rain 37 2.8 34 1.1 89 89 Calm 29.96 1014 3 4 0.06 1.52
9:29 am 09:29 Cloudy with Heavy Rain 37 2.8 34 1.1 89 89 VRB 3 6 29.97 1015 2 2 0.10 2.54
9:53 am 09:53 Cloudy with Heavy Rain 38 3.3 36 2.2 93 93 Calm 29.94 1014 2 2 0.24 6.10
10:04 am 10:04 Cloudy with Rain 38 3.3 36 2.2 93 93 Calm 29.97 1015 2 3 0.03 0.76
10:11 am 10:11 Cloudy with Heavy Rain 38 3.3 35 1.7 89 89 NW 8 13 29.99 1015 2 3 0.07 1.78
10:18 am 10:18 Cloudy with Rain 38 3.3 36 2.2 93 93 Calm 29.97 1015 1 2 0.10 2.54
10:21 am 10:21 Cloudy with Rain 38 3.3 37 2.8 97 97 Calm 29.97 1015 2 2 0.11 2.79
10:23 am 10:23 Cloudy with Rain 38 3.3 37 2.8 97 97 Calm 29.98 1015 2 3 0.11 2.79
10:35 am 10:35 Cloudy with Rain 38 3.3 37 2.8 97 97 Calm 29.97 1015 2 3 0.14 3.56
10:41 am 10:41 Cloudy with Rain 38 3.3 36 2.2 93 93 SE 3 6 29.96 1014 2 3 0.16 4.06
10:53 am 10:53 Cloudy with Rain 38 3.3 37 2.8 97 97 Calm 29.95 1014 2 2 0.18 4.57
11:09 am 11:09 Cloudy with Light Rain 38 3.3 37 2.8 97 97 VRB 3 6 29.96 1014 2 3 0.03 0.76
11:21 am 11:21 Cloudy with Light Rain 38 3.3 37 2.8 97 97 VRB 5 7 29.93 1013 3 5 0.03 0.76
11:53 am 11:53 Cloudy with Light Rain 40 4.4 39 3.9 97 97 Calm 29.90 1013 4 6 0.04 1.02
12:01 pm 12:01 Cloudy with Light Rain 41 5 39 3.9 93 93 VRB 5 7 29.89 1012 5 8 0.00 0.00
12:17 pm 12:17 Cloudy with Light Rain 46 7.8 43 6.1 89 89 SSW 9 15 29.86 1011 5 8 0.00 0.00
12:36 pm 12:36 Cloudy with Light Rain 47 8.3 44 6.7 90 90 SSW 15 24 29.85 1011 10 16 0.01 0.25
12:53 pm 12:53 Cloudy 48 8.9 44 6.7 86 86 SW 14 22 29.84 1010 10 16 0.01 0.25
1:53 pm 13:53 Cloudy 50 10 47 8.3 89 89 SW 13 20 29.81 1010 10 16 0.00 0.00
2:53 pm 14:53 Cloudy with Light Rain 50 10 46 7.8 86 86 SW 10 17 29.80 1009 10 16 0.00 0.00
3:36 pm 15:36 Cloudy 51 10.6 44 6.7 77 77 W 17 28 29.82 1010 10 16 0.01 0.25
3:43 pm 15:43 Cloudy 51 10.6 43 6.1 74 74 W 20 31 29.83 1010 10 16 0.01 0.25
3:53 pm 15:53 Cloudy 49 9.4 41 5 74 74 WNW 18 30 29.84 1011 10 16 0.01 0.25
4:53 pm 16:53 Cloudy 46 7.8 38 3.3 73 73 W 14 22 29.88 1012 10 16 0.00 0.00
5:53 pm 17:53 Cloudy 44 6.7 35 1.7 71 71 W 16 26 29.91 1013 10 16 0.00 0.00
6:21 pm 18:21 Cloudy 43 6.1 34 1.1 71 71 W 14 22 29.91 1013 10 16 0.00 0.00
6:37 pm 18:37 Cloudy 43 6.1 34 1.1 71 71 W 14 22 29.92 1013 10 16 0.00 0.00
6:53 pm 18:53 Cloudy with Light Rain 42 5.6 34 1.1 73 73 W 18 30 29.92 1013 10 16 0.00 0.00
7:03 pm 19:03 Cloudy 41 5 34 1.1 76 76 W 14 22 29.93 1014 10 16 0.00 0.00
7:53 pm 19:53 Cloudy with Light Rain 41 5 33 0.6 73 73 W 18 30 29.92 1013 10 16 0.00 0.00
8:12 pm 20:12 Cloudy 40 4.4 31 -0.6 70 70 W 22 35 29.93 1014 10 16 0.00 0.00
8:53 pm 20:53 Cloudy with Light Rain 37 2.8 31 -0.6 79 79 W 20 31 29.94 1014 10 16 0.00 0.00
9:09 pm 21:09 Cloudy 35 1.7 28 -2.2 76 76 WNW 24 39 29.97 1015 10 16 0.00 0.00
9:53 pm 21:53 Cloudy 33 0.6 26 -3.3 75 75 WNW 15 24 29.98 1015 10 16 0.00 0.00
10:53 pm 22:53 Cloudy 31 -0.6 23 -5 72 72 W 17 28 30.00 1016 10 16 0.00 0.00
11:53 pm 23:53 Cloudy 29 -1.7 20 -6.7 69 69 W 14 22 30.04 1017 10 16 0.00 0.00

Powered by AerisWeather